Flag for U.S.A. Weather past 2 weeks in Oklahoma City, Oklahoma, U.S.A.

Now
70 °F

Passing clouds.


Feels Like: 69 °F
Forecast: 70 / 89 °F
Wind: 3 mph from Northwest

Location: Will Rogers World Airport

Current Time: Aug 29, 2015 at 7:57:51 AM

Latest Report: Aug 29, 2015 at 6:52 AM


Visibility: 10 mi

Pressure: 29.95 "Hg

Humidity: 84%

Dew point: 65 °F

Location of Oklahoma CityLocation

Historic Weather in Oklahoma City — Graph

°F

Oklahoma City temperature yesterday

Maximum temperature yesterday: 85 °F (at 5:52 PM)
Minimum temperature yesterday: 70 °F (at 7:52 AM)
Average temperature yesterday: 76 °F

Past Weeks' High & Low Weather Summary

 TemperatureHumidityPressure
High94 °F (Aug 27, 3:52 PM)100% (Aug 14, 11:52 AM)30.17 "Hg (Aug 14, 11:52 AM)
Low51 °F (Aug 20, 6:52 AM)35% (Aug 20, 5:52 PM)29.62 "Hg (Aug 18, 7:52 PM)
Average77 °F68%29.97 "Hg
* Reported Aug 14 6:52 AM — Aug 29 6:52 AM, Oklahoma City, Weather by CustomWeather, © 2015

Note: Actual official high and low records may vary slightly from our data, if they occured in-between our weather recording intervals... More about our weather records

Advertising

Oklahoma City weather history for previous 24 hours

 ConditionsComfort  
Time TempWeatherWind HumidityBarometerVisibility
6:52 AM
Sat, Aug 29
70 °FPassing clouds.3 mph84%29.95 "Hg10 mi
5:52 AM68 °FPassing clouds.5 mph90%29.93 "Hg10 mi
4:52 AM70 °FPartly cloudy.7 mph87%29.93 "Hg10 mi
3:52 AM69 °FPassing clouds.8 mph90%29.94 "Hg10 mi
1:52 AM71 °FPartly cloudy.7 mph84%29.93 "Hg10 mi
12:52 AM73 °FPassing clouds.7 mph79%29.93 "Hg10 mi
11:52 PM
Fri, Aug 28
74 °FPartly cloudy.7 mph79%29.93 "Hg10 mi
10:52 PM73 °FPassing clouds.6 mph81%29.92 "Hg10 mi
9:52 PM73 °FPassing clouds.6 mph84%29.91 "Hg10 mi
8:52 PM75 °FBroken clouds.6 mph82%29.88 "Hg10 mi
7:52 PM80 °FPartly sunny.6 mph69%29.87 "Hg10 mi
6:52 PM85 °FPartly sunny.7 mph59%29.87 "Hg10 mi
5:52 PM85 °FPartly sunny.8 mph57%29.87 "Hg10 mi
4:52 PM83 °FPartly sunny.12 mph63%29.88 "Hg10 mi
3:52 PM81 °FMostly cloudy.10 mph65%29.90 "Hg10 mi
2:52 PM79 °FPartly sunny.12 mph67%29.91 "Hg10 mi
1:52 PM77 °FLight rain. Partly sunny.14 mph71%29.93 "Hg10 mi
12:52 PM76 °FLight rain. Broken clouds.12 mph74%29.94 "Hg10 mi
11:52 AM78 °FMostly cloudy.15 mph62%29.96 "Hg10 mi
10:52 AM76 °FMostly cloudy.16 mph67%29.94 "Hg10 mi
9:52 AM73 °FMostly cloudy.12 mph74%29.93 "Hg10 mi
8:52 AM72 °FPartly sunny.14 mph73%29.94 "Hg10 mi
7:52 AM70 °FLight rain. Passing clouds.9 mph81%29.94 "Hg10 mi
Weather by CustomWeather, © 2015

See weather overviewHow to use our weather pages